Location: Beccas
(43.4309°N, 0.1528°E)
Time: 20:00:35
(UTC+00:00)

Daily predictions for brighter satellites

Satellite Brightness Start Highest point End
(mag) Time Altitude Azimuth Time Altitude Azimuth Time Altitude Azimuth
USA 267 4.3 17:30:04 10° SSE 17:36:23 50° SW 17:42:44 10° WNW
Meteor 1-22 Rocket 4.5 17:31:04 10° S 17:37:01 87° E 17:43:09 10° N
Cosmos 1980 Rocket 3.3 17:33:40 10° SSE 17:37:52 22° E 17:42:05 10° NE
Okean 2 Rocket 3.2 17:33:52 10° S 17:38:17 83° W 17:42:46 10° N
Cosmos 2297 Rocket 2.2 17:33:24 10° NNW 17:39:06 81° ENE 17:44:45 10° SSE
SKYMED 2 4.1 17:35:18 10° NNE 17:39:21 36° E 17:43:21 10° SSE
Okean O Rocket 2.1 17:36:14 10° SE 17:40:14 37° ENE 17:44:15 10° N
Cosmos 2263 Rocket 3.8 17:39:08 10° N 17:42:27 16° NE 17:45:46 10° E
Landsat 5 4.0 17:42:12 10° NNE 17:46:17 41° E 17:50:28 10° S
Okean-O 4.5 17:45:31 10° E 17:47:26 13° ENE 17:49:22 10° NE
Uosat 12 SS-18 rocket 4.5 17:44:33 10° SSW 17:49:18 76° ESE 17:55:08 10° NE
Cosmos 1656 3.9 17:45:39 10° SSW 17:51:11 75° WNW 17:56:41 10° NNE
YAOGAN 1 3.8 17:48:25 10° ESE 17:51:45 22° ENE 17:55:06 10° NNE
Genesis I 4.3 17:49:58 10° NNW 17:53:35 29° NE 17:57:09 10° ESE
Cosmos 2084 Rocket 3.3 17:49:59 10° SW 17:53:51 79° NW 17:57:46 10° NE
Cosmos 2298 Rocket 4.3 17:49:00 10° S 17:54:04 47° ESE 17:59:08 10° NNE
ARGOS 3.5 17:49:18 10° SE 17:54:23 44° ENE 17:59:29 10° N
Cosmos 1727 Rocket 4.1 17:48:50 10° N 17:54:58 56° ENE 18:01:01 10° SSE
Cosmos 1455 Rocket 4.3 17:53:10 10° SE 17:56:20 20° E 17:59:32 10° NE
Cosmos 1697 Rocket 2.7 17:51:03 10° S 17:56:37 61° ESE 18:02:12 10° NNE
Cosmos 1048 Rocket 4.2 17:51:46 10° NNW 17:57:03 55° ENE 18:02:15 10° SE
Cosmos 389 Rocket 3.0 17:55:01 10° SSE 17:58:05 33° E 18:01:11 10° NNE
CZ-4C R/B 3.4 17:54:50 10° NNE 17:58:06 38° E 18:01:16 10° S
Cosmos 1908 4.1 17:55:10 10° SSE 17:58:31 28° E 18:01:53 10° NNE
Meteor 1-24 Rocket 4.3 17:53:39 10° NNW 17:59:17 67° W 18:05:06 10° S
MOS 1-B Rocket 4.4 17:52:58 10° NNE 17:59:50 51° E 18:05:44 10° S
Cosmos 1174 4.3 17:57:02 10° S 18:00:00 27° ESE 18:02:37 10° ENE
Cosmos 2366 rocket 4.1 17:56:43 10° S 18:02:52 82° W 18:09:08 10° N
H-2A R/B 3.2 18:01:33 10° NE 18:04:36 20° E 18:07:38 10° SE
Cosmos 2227 Rocket 2.3 17:59:40 10° NNW 18:05:22 87° WSW 18:11:02 10° SSE
CZ-4 R/B 2.2 18:04:39 10° SE 18:08:05 29° ENE 18:11:36 10° N
Cosmos 1470 3.9 18:05:58 10° SSW 18:09:48 48° WNW 18:13:41 10° N
Cosmos 1758 3.3 18:06:34 10° S 18:10:33 88° W 18:14:33 10° N
Cosmos 405 4.4 18:10:00 10° SSW 18:13:15 41° WNW 18:16:32 10° N
CZ-2C R/B 2.7 18:09:51 10° NNE 18:15:29 71° ESE 18:21:02 10° S
BREEZE M DEB (TANK) 4.3 18:12:22 10° WNW 18:16:36 85° SSW 18:44:38 12° ESE
Cosmos 1125 Rocket 3.5 18:12:17 10° S 18:17:29 63° ESE 18:22:41 10° NNE
Cosmos 1703 3.8 18:15:35 10° N 18:19:14 36° ENE 18:22:51 10° SE
Okean 1 Rocket 3.3 18:16:12 10° SSW 18:20:31 74° W 18:24:53 10° N
Cosmos 1953 2.5 18:18:16 10° SSE 18:22:09 48° E 18:26:05 10° NNE
SL-08 R/B 4.4 18:17:58 10° S 18:24:07 82° E 18:30:26 10° N
COSMO-SKYMED 1 3.0 18:23:11 10° N 18:27:31 67° WNW 18:31:49 10° SSW
Cosmos 1356 4.2 18:25:08 10° NNW 18:28:26 53° W 18:31:45 10° S
SL-08 RB Rocket 3.7 18:24:03 10° SSE 18:28:28 60° ENE 18:32:59 10° N
Cosmos 2082 3.6 18:24:12 10° NNW 18:29:50 74° ENE 18:35:27 10° SSE
X-37B 0.9 18:27:21 10° SW 18:30:26 51° SSE 18:31:32 32° E
Meteor 1-21 Rocket 4.3 18:24:44 10° N 18:30:33 66° ENE 18:36:24 10° SSE
Cosmos 494 Rocket 4.0 18:28:50 10° NNW 18:34:05 90° ESE 18:39:16 10° SSE
Iridium 4 Rocket 3.4 18:31:56 10° NNE 18:36:06 43° E 18:40:34 10° SSE
Cosmos 1000 Rocket 4.4 18:31:10 10° N 18:37:20 72° E 18:43:30 10° SSE
DMSP B5D2-2 4.2 18:32:39 10° NNE 18:37:45 48° E 18:42:48 10° S
GPS 2-04 Rocket1 4.5 18:36:17 10° WSW 18:39:03 20° SSW 18:40:49 14° SSE
Cosmos 1892 Rocket 3.5 18:37:39 10° N 18:42:08 72° E 18:46:33 10° SSE
H-2A R/B 2.8 18:44:25 10° S 18:48:50 73° WSW 18:53:09 10° NNW
Cosmos 1821 Rocket 4.2 18:44:44 10° SSW 18:51:07 77° W 18:57:33 10° N
Cosmos 405 Rocket 2.6 18:48:11 10° N 18:52:06 67° ENE 18:54:26 23° SSE
Feng Yun 1-1 Rocket 4.5 18:48:58 10° S 18:54:25 72° WSW 19:00:02 10° NNW
H-2A R/B 4.1 18:57:14 10° SSW 19:01:51 30° W 19:06:36 10° NNW
ATLAS 5 CENTAUR R/B 1.2 18:59:16 10° SSW 19:03:05 66° ESE 19:03:32 59° E
Cosmos 2369 4.3 18:59:15 10° SW 19:04:48 59° WNW 19:10:26 10° NNE
Cosmos 2227 4.5 19:00:36 10° NNW 19:06:10 47° ENE 19:07:21 42° E
Cosmos 1626 Rocket 4.2 19:08:03 10° N 19:11:04 37° NNE 19:11:04 37° NNE
Okean O Rocket 4.2 19:13:27 10° SW 19:16:41 21° W 19:19:58 10° NW
Cosmos 1607 4.1 19:10:26 10° NW 19:16:43 72° WSW 19:20:31 24° SSE
Cosmos 1934 Rocket 3.9 19:12:23 10° S 19:18:33 86° W 19:24:40 10° N
ATLAS 3B R/B 3.9 19:14:58 10° WSW 19:21:04 39° NW 19:27:27 10° NNE
Cosmos 1980 Rocket 2.8 19:15:51 10° SW 19:21:23 57° WNW 19:27:00 10° NNE
IRS-1C Rocket 4.3 19:16:20 10° S 19:21:33 69° WSW 19:26:49 10° NNW
Okean-O 2.7 19:21:29 35° S 19:23:19 74° WSW 19:27:45 10° NNW
Cosmos 724 4.2 19:18:04 10° NNW 19:24:00 63° NE 19:24:48 57° E
Cosmos 2263 Rocket 2.0 19:21:39 10° NNW 19:27:16 85° ENE 19:28:26 57° SSE
Cosmos 2123 Rocket 4.1 19:20:56 10° N 19:27:17 77° W 19:33:34 10° S
CSL-04 Debris 4.1 19:24:27 29° SSE 19:27:17 85° WSW 19:32:44 10° NNW
YAOGAN 1 4.1 19:23:40 10° SSW 19:27:38 35° W 19:31:39 10° NNW
Okean 1-7 Rocket 4.1 19:34:28 10° NNW 19:38:47 56° W 19:39:31 49° SW
H-2A R/B 3.5 19:36:55 10° N 19:40:39 35° WNW 19:44:24 10° SW
CZ-4 R/B 3.8 19:40:02 10° SW 19:43:06 22° W 19:46:14 10° NW
Gbstr 26 Del rocket 4.4 19:39:37 10° WNW 19:47:10 80° NNE 19:48:38 63° E
Cosmos 1269 Rocket 4.3 19:41:54 10° NNW 19:47:10 65° WSW 19:47:50 58° SW
CSL-04 Rocket 4.1 19:47:09 37° SSW 19:49:16 62° WSW 19:54:47 10° NNW
Cosmos 1844 Rocket 4.2 19:58:29 10° N 20:01:03 24° N 20:01:03 24° N
SL-16 R/B 4.0 20:01:07 10° SSW 20:02:39 19° SSW 20:02:39 19° SSW
Lacrosse 4 Rocket 4.2 20:07:29 10° NNW 20:07:58 13° NNW 20:07:58 13° NNW
Cosmos 2344 4.2 20:14:44 10° NW 20:24:03 78° NE 20:25:37 68° ESE
USA 215 4.4 20:26:30 31° N 20:26:30 31° N 20:31:53 10° NW
